Flag for U.S.A. Weather past 2 weeks in St. Paul, Minnesota, U.S.A.

Now
57 °F

Overcast.


Feels Like: 57 °F
Forecast: 51 / 66 °F
Wind: 5 mph from Southeast

Location: St. Paul Downtown Holman Field

Current Time: Oct 23, 2014 at 12:57:06 PM

Latest Report: Oct 23, 2014 at 11:53 AM


Visibility: 8 mi

Pressure: 30.01 "Hg

Humidity: 87%

Dew point: 53 °F

Location of St. PaulLocation

Historic Weather in St. Paul — Graph

°F

St. Paul temperature yesterday

Maximum temperature yesterday: 59 °F (at 2:53 PM)
Minimum temperature yesterday: 41 °F (at 5:53 AM)
Average temperature yesterday: 50 °F

Past Weeks' High & Low Weather Summary

 TemperatureHumidityPressure
High71 °F (Oct 16, 2:53 PM)100% (Oct 11, 5:53 AM)30.30 "Hg (Oct 11, 5:53 AM)
Low33 °F (Oct 10, 6:53 AM)31% (Oct 15, 3:53 PM)29.56 "Hg (Oct 16, 4:53 PM)
Average49 °F70%30.01 "Hg
* Reported Oct 8 11:53 AM — Oct 23 11:00 AM, St. Paul, Weather by CustomWeather, © 2014

Note: Actual official high and low records may vary slightly from our data, if they occured in-between our weather recording intervals... More about our weather records

Advertising

St. Paul weather history for previous 24 hours

 ConditionsComfort  
Time TempWeatherWind HumidityBarometerVisibility
11:00 AM
Oct 23
54 °FMore clouds than sun.3 mph90%30.02 "Hg9 mi
9:53 AM53 °FLow clouds.6 mph93%30.01 "Hg9 mi
8:53 AM51 °FLow clouds.5 mph96%30.01 "Hg7 mi
7:53 AM51 °FLow clouds.3 mph92%30.00 "Hg10 mi
6:53 AM51 °FOvercast.6 mph92%30.00 "Hg10 mi
5:53 AM51 °FOvercast.7 mph92%30.01 "Hg10 mi
4:53 AM50 °FFog.5 mph96%30.01 "Hg6 mi
3:53 AM50 °FLight rain. Fog.6 mph93%30.01 "Hg4 mi
2:53 AM52 °FOvercast.7 mph80%30.01 "Hg9 mi
1:53 AM51 °FLight rain. Mostly cloudy.9 mph80%30.03 "Hg8 mi
12:53 AM54 °FPassing clouds.8 mph64%30.03 "Hg10 mi
11:53 PM
Oct 22
55 °FPassing clouds.12 mph59%30.04 "Hg10 mi
10:53 PM54 °FClear.17 mph62%30.05 "Hg10 mi
9:53 PM54 °FPassing clouds.10 mph62%30.08 "Hg10 mi
8:53 PM55 °FPassing clouds.9 mph59%30.06 "Hg10 mi
7:53 PM56 °FClear.15 mph58%30.06 "Hg10 mi
6:53 PM57 °FPassing clouds.15 mph55%30.06 "Hg10 mi
5:53 PM57 °FSunny.13 mph58%30.05 "Hg10 mi
4:53 PM57 °FBroken clouds.20 mph58%30.07 "Hg10 mi
3:53 PM59 °FSunny.13 mph54%30.09 "Hg10 mi
2:53 PM59 °FPartly sunny.21 mph51%30.11 "Hg10 mi
1:53 PM55 °FOvercast.20 mph59%30.14 "Hg10 mi
12:53 PM54 °FMore clouds than sun.16 mph62%30.16 "Hg10 mi
Weather by CustomWeather, © 2014

See weather overviewHow to use our weather pages